This is the latest recevied weather packets stored in our database for station/object K8DJB-1. If no packets are shown the sender has not sent any weather packets the latest 10 day(s).
| Time | Temp. | Humidity | Pressure | Rain* | Wind** | Luminosity | Snow |
|---|---|---|---|---|---|---|---|
| 1777785296 | 5.56° C | 58% | 1014 hPa | 0 mm | - | - | - |
| 1777784996 | 5.56° C | 58% | 1014.1 hPa | 0 mm | - | - | - |
| 1777784696 | 5.56° C | 58% | 1014.1 hPa | 0 mm | - | - | - |
| 1777784396 | 5° C | 59% | 1014.1 hPa | 0 mm | - | - | - |
| 1777784096 | 4.44° C | 62% | 1014.2 hPa | 0 mm | - | - | - |
| 1777783796 | 3.89° C | 66% | 1014.2 hPa | 0 mm | - | - | - |
| 1777783496 | 3.89° C | 70% | 1014.2 hPa | 0 mm | - | - | - |
| 1777783196 | 3.89° C | 69% | 1014.3 hPa | 0 mm | - | - | - |
| 1777782896 | 3.89° C | 67% | 1014.4 hPa | 0 mm | - | - | - |
| 1777782596 | 3.89° C | 67% | 1014.3 hPa | 0 mm | - | - | - |
| 1777782296 | 4.44° C | 67% | 1014.4 hPa | 0 mm | - | - | - |
| 1777781996 | 4.44° C | 67% | 1014.4 hPa | 0 mm | - | - | - |
| 1777781696 | 4.44° C | 67% | 1014.5 hPa | 0 mm | - | - | - |
| 1777781396 | 4.44° C | 66% | 1014.5 hPa | 0 mm | - | - | - |
| 1777781096 | 4.44° C | 69% | 1014.5 hPa | 0 mm | - | - | - |
| 1777780796 | 4.44° C | 66% | 1014.6 hPa | 0 mm | - | - | - |
| 1777780496 | 4.44° C | 69% | 1014.8 hPa | 0 mm | - | - | - |
| 1777780196 | 4.44° C | 68% | 1014.7 hPa | 0 mm | - | - | - |
| 1777779896 | 4.44° C | 68% | 1014.9 hPa | 0 mm | - | - | - |
| 1777779596 | 4.44° C | 67% | 1014.8 hPa | 0 mm | - | - | - |
| 1777779296 | 5° C | 67% | 1014.9 hPa | 0 mm | - | - | - |
| 1777778996 | 5° C | 68% | 1014.9 hPa | 0 mm | - | - | - |
| 1777778696 | 5° C | 67% | 1014.9 hPa | 0 mm | - | - | - |
| 1777778396 | 5° C | 65% | 1015 hPa | 0 mm | - | - | - |
| 1777777982 | 5° C | 58% | 1015 hPa | 0 mm | - | - | - |
* Rain latest hour (hover to see other rain measurements)
** Current wind speed in m/s (hover to see current wind gust speed)